THOR ABLESTAR DEB, 416

Orbit data source: Space-Track

THOR ABLESTAR DEB, 416 is space debris in LEO originally from a launch on Thu, 29 Jun 1961 UTC launched from the Air Force Eastern Test Range (AFETR). Debris objects in space refer to the collection of defunct objects orbiting the Earth. Examples of debris include non-operational satellites, rocket bodies, and fragments generated from explosions, collisions, or faulty payload assembly.

Loading next visibility...
THOR ABLESTAR DEB details
Identifier
416, 1961-015ER
Orbit
LEO
Last TLE update13 hours ago
Origin
Flag of USUSAF SSD (US)
ManufacturerUnknown
MissionSpacecraft
Bus & MotorUnknown
MassUnknown
Launch date (UTC)
1961-06-29 (64 years ago)
Launch vehicleUnknown
Launch site
Air Force Eastern Test Range (AFETR)
Object type
Payload
Rocket body
Debris
Shape & HBRUnknown
Radar Cross SectionSmall (<0.1 m²)

Expand to show TLE details & history

TLE from 13 hours ago
0 THOR ABLESTAR DEB
1   416U 61015ER  25013.85612919  .00000596  00000-0  34792-3 0  9994
2   416  66.5039 171.1535 0072076 162.3880 197.9733 14.14085918258785
Epoch: 2025-01-13T20:32Z
Definitive object data (Epoch: 2025-01-13T20:32:49.562Z)
Latitude0.00004°
Longitude109.37583°
Altitude897.064 km
Speed7.379 km/s
True Right ascension11h 24m 36s
True Declination0° 00' 00"
Sunlit
Object was in full shadow at TLE epoch
Visualization TLE readout
Latitude-44.27137°
Longitude83.01294°
Altitude905.994 km
Speed7.376 km/s
Apparent Right ascension05h 09m 14s
Apparent Declination-82° 48' 00"
Sunlit
Object is in daylight
Visualization observer readout
Local Sidereal Time10:29:25
Azimuth189.052° SSW
Elevation-38.316°
Doppler factor1
Orbital elements
Apogee altitude895.886 km
Perigee altitude791.78 km
Semi-major axis7,221.97 km
Eccentricity0.0072076
Inclination66.5039°
RAAN171.1535°
Arg. of periapsis162.388°
True anomaly197.72061°
Mean anomaly197.9733°
Eccentric anomaly197.84674°
Mean motion3.53639 °/min
BSTAR0.00034792
Orbital period101.8 mins
Loading maneuver chart data...

THOR ABLESTAR DEB Visibility forecast

Observer location: undefined°, undefined

Span
Click to sort rows by Start time (UTC) header in descending order
Start Az.
Max El. time (UTC)
Max El. Az.
Max El.
End time (UTC)
End Az.
10 mins2025-01-14 11:57:25.367Z204.256° SW2025-01-14 12:02:25.367Z55.045° ENE44.13°2025-01-14 12:07:25.367Z31.047° NE
5 mins2025-01-14 13:45:25.367Z292.544° NW2025-01-14 13:47:25.367Z317.74° NNW17.469°2025-01-14 13:50:25.367Z353.012° N
9 mins2025-01-14 20:52:25.367Z337.191° NNW2025-01-14 20:56:25.367Z40.801° NE42.942°2025-01-14 21:01:25.367Z141.841° SSE
4 mins2025-01-14 22:39:25.367Z270.902° WNW2025-01-14 22:40:25.367Z258.45° W14.553°2025-01-14 22:43:25.367Z223.524° SW
|